Location: C�an Torras
(41.5052°N, 1.9280°E)
Time: 18:21:49
(UTC+00:00)

Meteor 2-10 Rocket - Pass Details

Date: 20 January 2021
Orbit: 733 x 885 km, 81.2° (Epoch: 02 March)

Event Time Altitude Azimuth Distance (km) Brightness Sun altitude
Rises 18:26:56 0° 347° (NNW) 3,400 6.9 -17.3°
Reaches altitude 10° 18:29:25 10° 344° (NNW) 2,439 6.2 -17.8°
Maximum altitude 18:34:51 64° 264° (W) 884 4.0 -18.8°
Drops below altitude 10° 18:40:02 10° 184° (S) 2,321 6.1 -19.7°
Sets 18:42:21 0° 181° (S) 3,223 6.9 -20.2°
